EN

Hourly Weather Giurgiulesti

Today, 25 October, Sunday

Time Temperature Precipitation Wind Pressure Humidity
00:00 +19°C° 0 mm 1 mps 758 mmHg 58%
01:00 +18°C° 0 mm 2 mps 758 mmHg 63%
02:00 +17°C° 0 mm 2 mps 758 mmHg 67%
03:00 +17°C° 0 mm 2 mps 758 mmHg 68%
04:00 +17°C° 0 mm 3 mps 758 mmHg 69%
05:00 +16°C° 0 mm 3 mps 758 mmHg 71%
06:00 +17°C° 0 mm 3 mps 758 mmHg 68%
07:00 +17°C° 0 mm 3 mps 758 mmHg 66%
08:00 +17°C° 0 mm 3 mps 758 mmHg 64%
09:00 +18°C° 0 mm 4 mps 758 mmHg 61%
10:00 +19°C° 0 mm 4 mps 758 mmHg 57%
11:00 +21°C° 0 mm 4 mps 758 mmHg 54%
12:00 +21°C° 0 mm 5 mps 758 mmHg 53%
13:00 +22°C° 0 mm 5 mps 757 mmHg 52%
14:00 +23°C° 0 mm 5 mps 757 mmHg 51%
15:00 +22°C° 0 mm 5 mps 757 mmHg 57%
16:00 +21°C° 0 mm 5 mps 757 mmHg 62%
17:00 +20°C° 0 mm 4 mps 756 mmHg 67%
18:00 +19°C° 0 mm 4 mps 756 mmHg 71%
19:00 +18°C° 0 mm 4 mps 757 mmHg 76%
20:00 +18°C° 0 mm 3 mps 757 mmHg 80%
21:00 +17°C° 0 mm 3 mps 757 mmHg 82%
22:00 +17°C° 0 mm 3 mps 757 mmHg 83%
23:00 +17°C° 0 mm 3 mps 757 mmHg 85%

Tomorrow, 26 October, Monday

Time Temperature Precipitation Wind Pressure Humidity
00:00 +17°C° 0 mm 3 mps 757 mmHg 87%
01:00 +17°C° 0 mm 3 mps 757 mmHg 89%
02:00 +17°C° 0 mm 3 mps 756 mmHg 91%
03:00 +17°C° 0 mm 3 mps 756 mmHg 91%
04:00 +17°C° 0 mm 3 mps 756 mmHg 90%
05:00 +16°C° 0 mm 3 mps 756 mmHg 89%
06:00 +17°C° 0.2 mm 3 mps 756 mmHg 89%
07:00 +17°C° 0.2 mm 3 mps 756 mmHg 89%
08:00 +17°C° 0.2 mm 3 mps 756 mmHg 89%
09:00 +18°C° 0.8 mm 3 mps 756 mmHg 82%
10:00 +20°C° 0.8 mm 3 mps 756 mmHg 74%
11:00 +21°C° 0.8 mm 3 mps 756 mmHg 67%
12:00 +21°C° 1.5 mm 2 mps 756 mmHg 65%
13:00 +21°C° 1.5 mm 2 mps 756 mmHg 63%
14:00 +23°C° 1.5 mm 2 mps 755 mmHg 61%
15:00 +21°C° 0.4 mm 2 mps 755 mmHg 64%
16:00 +21°C° 0.4 mm 1 mps 755 mmHg 67%
17:00 +20°C° 0.4 mm 1 mps 755 mmHg 69%
18:00 +19°C° 0.3 mm 1 mps 756 mmHg 73%
19:00 +19°C° 0.3 mm 1 mps 756 mmHg 76%
20:00 +18°C° 0.3 mm 1 mps 756 mmHg 80%
21:00 +18°C° 0 mm 1 mps 756 mmHg 82%
22:00 +16°C° 0 mm 1 mps 756 mmHg 83%
23:00 +16°C° 0 mm 1 mps 756 mmHg 84%

Day after tomorrow, 27 October, Tuesday

Time Temperature Precipitation Wind Pressure Humidity
00:00 +16°C° 0 mm 1 mps 756 mmHg 86%
01:00 +15°C° 0 mm 1 mps 756 mmHg 87%
02:00 +15°C° 0 mm 1 mps 756 mmHg 88%
03:00 +15°C° 0 mm 1 mps 757 mmHg 88%
04:00 +15°C° 0 mm 1 mps 757 mmHg 89%
05:00 +14°C° 0 mm 1 mps 757 mmHg 90%
06:00 +15°C° 0 mm 1 mps 757 mmHg 88%
07:00 +15°C° 0 mm 1 mps 757 mmHg 87%
08:00 +15°C° 0 mm 1 mps 757 mmHg 85%
09:00 +18°C° 0 mm 1 mps 757 mmHg 79%
10:00 +19°C° 0 mm 1 mps 758 mmHg 72%
11:00 +21°C° 0 mm 1 mps 758 mmHg 66%
12:00 +21°C° 0 mm 1 mps 757 mmHg 61%
13:00 +22°C° 0 mm 1 mps 757 mmHg 57%
14:00 +23°C° 0 mm 1 mps 757 mmHg 53%
15:00 +22°C° 0 mm 1 mps 757 mmHg 57%
16:00 +21°C° 0 mm 1 mps 757 mmHg 60%
17:00 +20°C° 0 mm 1 mps 757 mmHg 63%
18:00 +20°C° 0 mm 1 mps 757 mmHg 65%
19:00 +19°C° 0 mm 1 mps 757 mmHg 67%
20:00 +19°C° 0 mm 1 mps 757 mmHg 69%
21:00 +18°C° 0 mm 1 mps 757 mmHg 72%
22:00 +18°C° 0 mm 1 mps 757 mmHg 74%
23:00 +16°C° 0 mm 1 mps 757 mmHg 77%

28 October, Wednesday

Time Temperature Precipitation Wind Pressure Humidity
00:00 +16°C° 0 mm 1 mps 757 mmHg 79%
01:00 +15°C° 0 mm 1 mps 757 mmHg 82%
02:00 +15°C° 0 mm 1 mps 757 mmHg 84%
03:00 +15°C° 0 mm 1 mps 757 mmHg 85%
04:00 +14°C° 0 mm 1 mps 757 mmHg 87%
05:00 +14°C° 0 mm 1 mps 757 mmHg 88%
06:00 +15°C° 0 mm 1 mps 758 mmHg 88%
07:00 +15°C° 0 mm 1 mps 758 mmHg 88%
08:00 +15°C° 0 mm 1 mps 758 mmHg 87%
09:00 +18°C° 0 mm 1 mps 758 mmHg 81%
10:00 +20°C° 0 mm 1 mps 758 mmHg 75%
11:00 +20°C° 0 mm 2 mps 758 mmHg 69%
12:00 +21°C° 0 mm 2 mps 758 mmHg 64%
13:00 +22°C° 0 mm 1 mps 758 mmHg 60%
14:00 +23°C° 0 mm 1 mps 758 mmHg 56%
15:00 +21°C° 0.1 mm 2 mps 758 mmHg 61%
16:00 +20°C° 0.1 mm 2 mps 757 mmHg 67%
17:00 +19°C° 0.1 mm 3 mps 757 mmHg 72%
18:00 +18°C° 0 mm 3 mps 758 mmHg 78%
19:00 +17°C° 0 mm 3 mps 758 mmHg 83%
20:00 +15°C° 0 mm 4 mps 758 mmHg 89%
21:00 +16°C° 0 mm 3 mps 758 mmHg 90%
22:00 +15°C° 0 mm 2 mps 758 mmHg 91%
23:00 +15°C° 0 mm 2 mps 758 mmHg 92%

29 October, Thursday

Time Temperature Precipitation Wind Pressure Humidity
00:00 +15°C° 0 mm 2 mps 758 mmHg 92%
01:00 +14°C° 0 mm 2 mps 758 mmHg 92%
02:00 +14°C° 0 mm 2 mps 758 mmHg 92%
03:00 +14°C° 0 mm 2 mps 758 mmHg 91%
04:00 +14°C° 0 mm 2 mps 758 mmHg 91%
05:00 +14°C° 0 mm 2 mps 758 mmHg 91%
06:00 +14°C° 0 mm 2 mps 758 mmHg 90%
07:00 +14°C° 0 mm 2 mps 758 mmHg 88%
08:00 +14°C° 0 mm 2 mps 759 mmHg 87%
09:00 +15°C° 0 mm 2 mps 759 mmHg 81%
10:00 +16°C° 0 mm 2 mps 759 mmHg 75%
11:00 +18°C° 0 mm 2 mps 759 mmHg 69%
12:00 +18°C° 0 mm 2 mps 759 mmHg 66%
13:00 +19°C° 0 mm 2 mps 759 mmHg 63%
14:00 +19°C° 0 mm 2 mps 758 mmHg 59%
15:00 +19°C° 0 mm 2 mps 759 mmHg 62%
16:00 +18°C° 0 mm 2 mps 759 mmHg 64%
17:00 +17°C° 0 mm 2 mps 759 mmHg 67%
18:00 +18°C° 0 mm 1 mps 759 mmHg 68%
19:00 +16°C° 0 mm 1 mps 760 mmHg 70%
20:00 +16°C° 0 mm 1 mps 760 mmHg 72%
21:00 +15°C° 0 mm 1 mps 760 mmHg 72%
22:00 +15°C° 0 mm 1 mps 760 mmHg 73%
23:00 +15°C° 0 mm 1 mps 761 mmHg 73%

30 October, Friday

Time Temperature Precipitation Wind Pressure Humidity
00:00 +14°C° 0 mm 2 mps 761 mmHg 74%
01:00 +14°C° 0 mm 2 mps 761 mmHg 75%
02:00 +14°C° 0 mm 2 mps 761 mmHg 76%
03:00 +14°C° 0 mm 2 mps 762 mmHg 78%
04:00 +13°C° 0 mm 2 mps 762 mmHg 80%
05:00 +12°C° 0 mm 3 mps 762 mmHg 83%
06:00 +12°C° 0 mm 3 mps 762 mmHg 82%
07:00 +13°C° 0 mm 3 mps 763 mmHg 82%
08:00 +13°C° 0 mm 3 mps 763 mmHg 81%
09:00 +15°C° 0 mm 4 mps 763 mmHg 74%
10:00 +17°C° 0 mm 4 mps 764 mmHg 67%
11:00 +17°C° 0 mm 5 mps 764 mmHg 60%
12:00 +19°C° 0 mm 4 mps 764 mmHg 57%
13:00 +20°C° 0 mm 4 mps 764 mmHg 55%
14:00 +20°C° 0 mm 4 mps 763 mmHg 53%
15:00 +19°C° 0 mm 4 mps 764 mmHg 56%
16:00 +18°C° 0 mm 3 mps 764 mmHg 58%
17:00 +18°C° 0 mm 2 mps 764 mmHg 61%
18:00 +17°C° 0 mm 2 mps 764 mmHg 64%
19:00 +16°C° 0 mm 2 mps 764 mmHg 66%
20:00 +16°C° 0 mm 2 mps 765 mmHg 69%
21:00 +15°C° 0 mm 2 mps 765 mmHg 70%
22:00 +15°C° 0 mm 2 mps 765 mmHg 72%
23:00 +15°C° 0 mm 2 mps 765 mmHg 74%
Show more